CZ-6A DEB, 60697

Orbit data source: Space-Track

CZ-6A DEB, 60697 is space debris in LEO originally from a launch on Tue, 06 Aug 2024 UTC launched from the Taiyaun Space Center, China (TSC). Debris objects in space refer to the collection of defunct objects orbiting the Earth. Examples of debris include non-operational satellites, rocket bodies, and fragments generated from explosions, collisions, or faulty payload assembly.

Loading next visibility...
Identifier
60697, 2024-140DA
Orbit
LEO
Country
Flag of CNCN / PRC
Related business
Manufacturer
SAST
Mission
Spacecraft
Bus & Motor
Unknown
Mass
Unknown
Launch date (UTC)
2024-08-06 (2 years ago)
Launch vehicle
Unknown
Launch site
Taiyaun Space Center, China (TSC)
Object type
Payload
Rocket body
Debris
Shape & HBR
Unknown shape, 0.1 m
Radar Cross Section
Medium (>0.1 m² and <1 m²)

Expand to show TLE details & history
Last TLE update: 2 days ago

TLE from 2 days ago
0 CZ-6A DEB
1 60697U 24140DA  26170.31442630  .00000340  00000-0  16250-3 0  9992
2 60697  89.0289 277.1682 0061650 189.2310 170.7750 14.15960276 95878
Epoch: 2026-06-19T07:32Z
TLE epoch observation values (Epoch: 2026-06-19T07:32:46.432Z)
Latitude
-0.00004°
Longitude
-103.57045°
Altitude
886.03 km
Speed
7.387 km/s
True Right ascension
18h 28m 40s
True Declination
0° 00' 00"
Sunlit
Object was in full shadow at epoch
Visualization orbit readout
Latitude
Unknown
Longitude
Unknown
Altitude
Unknown
Speed
Unknown
Apparent Right ascension
Unknown
Apparent Declination
Unknown
Sunlit
N/A
Visualization observer readout
Local Sidereal Time
07:19:01
Azimuth
Unknown
Elevation
Unknown
Doppler factor
Unknown
Orbital elements
Apogee altitude
880.479 km
Perigee altitude
791.529 km
Semi-major axis
7,214.141 km
Eccentricity
0.00617
Inclination
89.0289°
RAAN
277.1682°
Arg. of periapsis
189.231°
True anomaly
170.8874°
Mean anomaly
170.775°
Eccentric anomaly
170.83128°
Mean motion
3.54214 °/min
Orbital period
101.63 mins
BSTAR
0.0001625
Loading maneuver chart data...
Computing Atmospheric mass density...
Loading historical data...
Loading historical data...
Loading historical data...
Loading historical data...
Loading historical data...
Loading historical data...
Loading historical data...

Documentation

Showing up to 5 results
|